TimeCST,TemperatureF,Dew PointF,Humidity,Sea Level PressureIn,VisibilityMPH,Wind Direction,Wind SpeedMPH,Gust SpeedMPH,PrecipitationIn,Events,Conditions,WindDirDegrees,DateUTC
12:53 AM,32.0,14.0,48,30.47,10.0,WNW,3.5,-,N/A,,Partly Cloudy,290,2012-12-21 06:53:00
1:53 AM,30.0,14.0,51,30.46,10.0,WNW,5.8,-,N/A,,Partly Cloudy,300,2012-12-21 07:53:00
2:53 AM,32.0,12.9,45,30.47,10.0,WNW,4.6,-,N/A,,Partly Cloudy,300,2012-12-21 08:53:00
3:53 AM,32.0,14.0,48,30.48,10.0,WNW,5.8,-,N/A,,Partly Cloudy,300,2012-12-21 09:53:00
4:53 AM,30.0,17.1,59,30.46,10.0,Calm,Calm,-,N/A,,Partly Cloudy,0,2012-12-21 10:53:00
5:53 AM,34.0,18.0,52,30.46,10.0,Calm,Calm,-,N/A,,Partly Cloudy,0,2012-12-21 11:53:00
6:53 AM,35.1,19.0,52,30.47,10.0,NW,4.6,-,N/A,,Mostly Cloudy,310,2012-12-21 12:53:00
7:53 AM,36.0,18.0,48,30.48,10.0,WNW,5.8,-,N/A,,Mostly Cloudy,290,2012-12-21 13:53:00
8:53 AM,39.0,19.0,45,30.49,10.0,NNW,4.6,-,N/A,,Mostly Cloudy,330,2012-12-21 14:53:00
9:53 AM,45.0,19.9,37,30.51,10.0,Calm,Calm,-,N/A,,Overcast,0,2012-12-21 15:53:00
10:53 AM,51.1,16.0,25,30.50,10.0,Calm,Calm,-,N/A,,Overcast,0,2012-12-21 16:53:00
11:53 AM,54.0,10.0,17,30.48,10.0,SSE,3.5,-,N/A,,Overcast,150,2012-12-21 17:53:00
12:53 PM,57.0,8.1,14,30.44,10.0,SSE,5.8,-,N/A,,Overcast,150,2012-12-21 18:53:00
1:53 PM,57.9,8.1,14,30.40,10.0,ESE,6.9,-,N/A,,Mostly Cloudy,110,2012-12-21 19:53:00
2:53 PM,57.0,7.0,14,30.36,10.0,Calm,Calm,-,N/A,,Mostly Cloudy,0,2012-12-21 20:53:00
3:53 PM,61.0,8.1,12,30.35,10.0,SE,10.4,-,N/A,,Scattered Clouds,140,2012-12-21 21:53:00
4:53 PM,57.9,6.1,13,30.35,10.0,South,6.9,-,N/A,,Mostly Cloudy,180,2012-12-21 22:53:00
5:53 PM,54.0,6.1,15,30.36,10.0,South,4.6,-,N/A,,Scattered Clouds,180,2012-12-21 23:53:00
6:53 PM,51.1,9.0,18,30.36,10.0,South,6.9,-,N/A,,Scattered Clouds,180,2012-12-22 00:53:00
7:53 PM,52.0,8.1,17,30.36,10.0,South,8.1,-,N/A,,Scattered Clouds,190,2012-12-22 01:53:00
8:53 PM,51.1,8.1,18,30.36,10.0,South,6.9,-,N/A,,Mostly Cloudy,190,2012-12-22 02:53:00
9:53 PM,50.0,9.0,19,30.35,10.0,South,5.8,-,N/A,,Mostly Cloudy,190,2012-12-22 03:53:00
10:53 PM,48.9,10.0,21,30.36,10.0,SW,3.5,-,N/A,,Mostly Cloudy,230,2012-12-22 04:53:00
11:53 PM,45.0,19.0,36,30.35,10.0,Calm,Calm,-,N/A,,Mostly Cloudy,0,2012-12-22 05:53:00